H1 CPF 2 NER 2024 5 5 9 126 01 glonass143 H2 2007501 9143 46805 2024 5 5 0 0 0 2024 5 8 23 45 0 900 1 1 0 0 0 1 H9 10 0 60435 0.00000 0 13790857.581 -10203239.018 -18874567.348 10 0 60435 900.00000 0 15969715.180 -10561836.661 -16854122.384 10 0 60435 1800.00000 0 17852518.095 -11027401.981 -14506301.602 10 0 60435 2700.00000 0 19399937.697 -11551421.822 -11876759.744 10 0 60435 3600.00000 0 20584459.578 -12080107.990 -9016605.271 10 0 60435 4500.00000 0 21391329.798 -12556826.918 -5981405.112 10 0 60435 5400.00000 0 21818979.488 -12924661.639 -2830103.805 10 0 60435 6300.00000 0 21878911.204 -13128997.563 376121.877 10 0 60435 7200.00000 0 21595053.039 -13120022.553 3575050.346 10 0 60435 8100.00000 0 21002608.942 -12855035.570 6704621.396 10 0 60435 9000.00000 0 20146454.536 -12300466.270 9704137.727 10 0 60435 9900.00000 0 19079146.697 -11433520.153 12515438.437 10 0 60435 10800.00000 0 17858631.057 -10243379.638 15084021.931 10 0 60435 11700.00000 0 16545743.996 -8731910.076 17360096.873 10 0 60435 12600.00000 0 15201613.993 -6913840.399 19299541.290 10 0 60435 13500.00000 0 13885071.071 -4816409.967 20864751.953 10 0 60435 14400.00000 0 12650172.430 -2478495.219 22025368.301 10 0 60435 15300.00000 0 11543947.306 50748.716 22758857.579 10 0 60435 16200.00000 0 10604454.809 2713676.388 23050950.454 10 0 60435 17100.00000 0 9859235.378 5446297.599 22895919.025 10 0 60435 18000.00000 0 9324220.191 8180692.637 22296691.933 10 0 60435 18900.00000 0 9003143.853 10847598.428 21264804.090 10 0 60435 19800.00000 0 8887484.880 13379059.657 19820181.475 10 0 60435 20700.00000 0 8956936.573 15711035.830 17990764.317 10 0 60435 21600.00000 0 9180388.800 17785856.781 15811975.019 10 0 60435 22500.00000 0 9517379.765 19554424.984 13326040.013 10 0 60435 23400.00000 0 9919957.004 20978073.058 10581177.757 10 0 60435 24300.00000 0 10334869.373 22029998.932 7630667.788 10 0 60435 25200.00000 0 10705997.524 22696218.481 4531818.339 10 0 60435 26100.00000 0 10976919.891 22975995.440 1344852.405 10 0 60435 27000.00000 0 11093505.071 22881730.410 -1868265.938 10 0 60435 27900.00000 0 11006419.997 22438313.539 -5045041.701 10 0 60435 28800.00000 0 10673446.607 21681968.255 -8123671.311 10 0 60435 29700.00000 0 10061507.614 20658635.075 -11044252.448 10 0 60435 30600.00000 0 9148314.271 19421964.147 -13749956.952 10 0 60435 31500.00000 0 7923565.027 18031001.738 -16188143.042 10 0 60435 32400.00000 0 6389643.132 16547668.920 -18311384.595 10 0 60435 33300.00000 0 4561782.474 15034139.270 -20078396.970 10 0 60435 34200.00000 0 2467693.571 13550226.534 -21454841.178 10 0 60435 35100.00000 0 146664.450 12150892.434 -22413990.837 10 0 60435 36000.00000 0 -2351826.769 10883979.409 -22937249.235 10 0 60435 36900.00000 0 -4969930.192 9788263.293 -23014506.849 10 0 60435 37800.00000 0 -7643598.070 8891907.102 -22644332.887 10 0 60435 38700.00000 0 -10305024.176 8211380.047 -21833997.628 10 0 60435 39600.00000 0 -12885247.463 7750886.115 -20599325.536 10 0 60435 40500.00000 0 -15316812.096 7502325.061 -18964382.371 10 0 60435 41400.00000 0 -17536373.622 7445786.222 -16961002.569 10 0 60435 42300.00000 0 -19487143.291 7550553.219 -14628166.260 10 0 60435 43200.00000 0 -21121069.353 7776576.074 -12011238.093 10 0 60435 44100.00000 0 -22400665.076 8076347.758 -9161082.723 10 0 60435 45000.00000 0 -23300408.048 8397105.097 -6133074.262 10 0 60435 45900.00000 0 -23807653.232 8683260.486 -2986019.069 10 0 60435 46800.00000 0 -23923022.555 8878961.091 218987.043 10 0 60435 47700.00000 0 -23660255.819 8930666.999 3419744.749 10 0 60435 48600.00000 0 -23045530.171 8789639.050 6554157.107 10 0 60435 49500.00000 0 -22116277.660 8414230.980 9561431.923 10 0 60435 50400.00000 0 -20919551.387 7771888.918 12383257.173 10 0 60435 51300.00000 0 -19510009.280 6840773.615 14964926.912 10 0 60435 52200.00000 0 -17947600.409 5610936.681 17256396.207 10 0 60435 53100.00000 0 -16295050.871 4085000.827 19213245.129 10 0 60435 54000.00000 0 -14615254.289 2278314.768 20797533.844 10 0 60435 54900.00000 0 -12968675.620 218575.265 21978532.949 10 0 60435 55800.00000 0 -11410876.178 -2055069.169 22733315.629 10 0 60435 56700.00000 0 -9990262.496 -4493397.008 23047200.762 10 0 60435 57600.00000 0 -8746152.216 -7038919.084 22914038.763 10 0 60435 58500.00000 0 -7707237.073 -9628037.193 22336334.739 10 0 60435 59400.00000 0 -6890506.543 -12193467.797 21325206.344 10 0 60435 60300.00000 0 -6300676.691 -14666831.654 19900176.593 10 0 60435 61200.00000 0 -5930147.891 -16981302.931 18088804.866 10 0 60435 62100.00000 0 -5759493.073 -19074208.556 15926162.244 10 0 60435 63000.00000 0 -5758456.066 -20889470.212 13454160.287 10 0 60435 63900.00000 0 -5887418.117 -22379787.329 10720745.261 10 0 60435 64800.00000 0 -6099270.891 -23508469.885 7778972.634 10 0 60435 65700.00000 0 -6341616.827 -24250844.037 4685979.207 10 0 60435 66600.00000 0 -6559203.623 -24595171.241 1501872.660 10 0 60435 67500.00000 0 -6696489.305 -24543041.855 -1711439.769 10 0 60435 68400.00000 0 -6700228.511 -24109226.278 -4891460.265 10 0 60435 69300.00000 0 -6521969.395 -23320989.726 -7976322.781 10 0 60435 70200.00000 0 -6120354.140 -22216899.450 -10906004.096 10 0 60435 71100.00000 0 -5463124.328 -20845174.873 -13623499.087 10 0 60435 72000.00000 0 -4528744.921 -19261650.519 -16075936.460 10 0 60435 72900.00000 0 -3307576.815 -17527438.002 -18215612.541 10 0 60435 73800.00000 0 -1802547.216 -15706385.987 -20000922.567 10 0 60435 74700.00000 0 -29288.377 -13862445.369 -21397171.157 10 0 60435 75600.00000 0 1984262.146 -12057050.636 -22377246.260 10 0 60435 76500.00000 0 4198783.909 -10346627.353 -22922143.774 10 0 60435 77400.00000 0 6564980.736 -8780330.073 -23021333.053 10 0 60435 78300.00000 0 9025414.463 -7398104.925 -22672956.679 10 0 60435 79200.00000 0 11516689.247 -6229157.181 -21883861.126 10 0 60435 80100.00000 0 13971895.743 -5290886.960 -20669458.141 10 0 60435 81000.00000 0 16323213.720 -4588336.325 -19053419.871 10 0 60435 81900.00000 0 18504565.018 -4114169.555 -17067213.873 10 0 60435 82800.00000 0 20454206.646 -3849185.955 -14749487.230 10 0 60435 83700.00000 0 22117156.349 -3763342.154 -12145311.793 10 0 60435 84600.00000 0 23447349.864 -3817239.561 -9305305.302 10 0 60435 85500.00000 0 24409440.374 -3964013.032 -6284645.577 10 0 60436 0.00000 0 24980165.576 -4151540.045 -3141997.359 10 0 60436 900.00000 0 25149226.097 -4324876.375 61628.914 10 0 60436 1800.00000 0 24919638.555 -4428814.421 3264059.761 10 0 60436 2700.00000 0 24307550.288 -4410455.939 6403165.234 10 0 60436 3600.00000 0 23341523.550 -4221689.833 9418061.683 10 0 60436 4500.00000 0 22061320.121 -3821470.195 12250289.020 10 0 60436 5400.00000 0 20516237.775 -3177798.171 14844939.563 10 0 60436 6300.00000 0 18763068.541 -2269323.816 17151716.898 10 0 60436 7200.00000 0 16863764.271 -1086500.081 19125904.774 10 0 60436 8100.00000 0 14882906.904 367760.194 20729227.906 10 0 60436 9000.00000 0 12885088.637 2077952.694 21930588.755 10 0 60436 9900.00000 0 10932310.666 4016382.061 22706666.714 10 0 60436 10800.00000 0 9081508.141 6144079.008 23042368.724 10 0 60436 11700.00000 0 7382303.579 8412197.371 22931122.962 10 0 60436 12600.00000 0 5875081.492 10763834.585 22375010.050 10 0 60436 13500.00000 0 4589463.616 13136201.423 21384729.022 10 0 60436 14400.00000 0 3543247.677 15463052.329 19979398.207 10 0 60436 15300.00000 0 2741853.450 17677276.495 18186194.052 10 0 60436 16200.00000 0 2178298.932 19713542.891 16039833.942 10 0 60436 17100.00000 0 1833707.343 21510889.657 13581911.917 10 0 60436 18000.00000 0 1678323.573 23015150.137 10860099.190 10 0 60436 18900.00000 0 1672997.137 24181114.062 7927224.128 10 0 60436 19800.00000 0 1771068.968 24974333.108 4840248.944 10 0 60436 20700.00000 0 1920582.040 25372494.516 1659162.784 10 0 60436 21600.00000 0 2066721.823 25366304.471 -1554187.162 10 0 60436 22500.00000 0 2154382.538 24959843.446 -4737303.378 10 0 60436 23400.00000 0 2130749.527 24170378.020 -7828260.282 10 0 60436 24300.00000 0 1947787.202 23027636.767 -10766916.421 10 0 60436 25200.00000 0 1564525.890 21572580.539 -13496092.061 10 0 60436 26100.00000 0 949049.440 19855719.010 -15962688.371 10 0 60436 27000.00000 0 80098.177 17935044.540 -18118725.722 10 0 60436 27900.00000 0 -1051781.765 15873670.545 -19922280.463 10 0 60436 28800.00000 0 -2443592.371 13737273.900 -21338301.689 10 0 60436 29700.00000 0 -4079769.173 11591448.913 -22339292.208 10 0 60436 30600.00000 0 -5932603.906 9499083.789 -22905840.725 10 0 60436 31500.00000 0 -7963187.423 7517869.292 -23026995.301 10 0 60436 32400.00000 0 -10122833.995 5698043.301 -22700471.335 10 0 60436 33300.00000 0 -12354927.997 4080464.816 -21932690.533 10 0 60436 34200.00000 0 -14597116.206 2695096.896 -20738650.527 10 0 60436 35100.00000 0 -16783754.564 1559960.624 -19141628.025 10 0 60436 36000.00000 0 -18848507.597 680602.391 -17172721.512 10 0 60436 36900.00000 0 -20726992.241 50095.187 -14870242.519 10 0 60436 37800.00000 0 -22359355.948 -350427.825 -12278967.387 10 0 60436 38700.00000 0 -23692681.711 -550731.502 -9449264.120 10 0 60436 39600.00000 0 -24683119.738 -589974.027 -6436111.411 10 0 60436 40500.00000 0 -25297656.977 -514804.063 -3298029.013 10 0 60436 41400.00000 0 -25515450.936 -377141.187 -95940.398 10 0 60436 42300.00000 0 -25328672.294 -231734.207 3108009.971 10 0 60436 43200.00000 0 -24742821.583 -133601.226 6251661.629 10 0 60436 44100.00000 0 -23776507.207 -135460.151 9274041.854 10 0 60436 45000.00000 0 -22460694.616 -285258.493 12116544.740 10 0 60436 45900.00000 0 -20837458.415 -623907.035 14724062.925 10 0 60436 46800.00000 0 -18958289.809 -1183313.128 17046050.367 10 0 60436 47700.00000 0 -16882030.161 -1984796.791 19037496.082 10 0 60436 48600.00000 0 -14672516.728 -3037956.605 20659790.608 10 0 60436 49500.00000 0 -12396038.261 -4340033.683 21881469.212 10 0 60436 50400.00000 0 -10118705.840 -5875801.220 22678818.084 10 0 60436 51300.00000 0 -7903847.499 -7617985.376 23036332.464 10 0 60436 52200.00000 0 -5809534.071 -9528201.300 22947018.198 10 0 60436 53100.00000 0 -3886338.182 -11558366.713 22412531.027 10 0 60436 54000.00000 0 -2175418.653 -13652535.754 21443150.703 10 0 60436 54900.00000 0 -707009.170 -15749078.210 20057589.942 10 0 60436 55800.00000 0 500626.482 -17783114.686 18282641.097 10 0 60436 56700.00000 0 1441729.609 -19689107.347 16152666.443 10 0 60436 57600.00000 0 2123050.266 -21403498.894 13708940.846 10 0 60436 58500.00000 0 2563319.556 -22867289.914 10998858.578 10 0 60436 59400.00000 0 2792213.007 -24028446.778 8075018.797 10 0 60436 60300.00000 0 2848848.970 -24844038.881 4994206.836 10 0 60436 61200.00000 0 2779885.720 -25282014.864 1816290.862 10 0 60436 62100.00000 0 2637298.205 -25322542.418 -1396944.537 10 0 60436 63000.00000 0 2475929.175 -24958854.434 -4583004.776 10 0 60436 63900.00000 0 2350919.294 -24197565.040 -7679907.434 10 0 60436 64800.00000 0 2315126.154 -23058441.556 -10627395.554 10 0 60436 65700.00000 0 2416642.720 -21573641.442 -13368117.509 10 0 60436 66600.00000 0 2696521.550 -19786446.119 -15848749.592 10 0 60436 67500.00000 0 3186802.316 -17749544.831 -18021038.758 10 0 60436 68400.00000 0 3908927.207 -15522940.725 -19842744.785 10 0 60436 69300.00000 0 4872612.160 -13171567.195 -21278463.278 10 0 60436 70200.00000 0 6075222.466 -10762714.514 -22300313.566 10 0 60436 71100.00000 0 7501679.829 -8363374.494 -22888478.398 10 0 60436 72000.00000 0 9124905.462 -6037614.049 -23031585.335 10 0 60436 72900.00000 0 10906781.193 -3844086.976 -22726922.944 10 0 60436 73800.00000 0 12799588.768 -1833787.129 -21980488.069 10 0 60436 74700.00000 0 14747867.436 -48135.827 -20806863.716 10 0 60436 75600.00000 0 16690612.415 1482517.887 -19228930.249 10 0 60436 76500.00000 0 18563722.516 2739922.993 -17277415.753 10 0 60436 77400.00000 0 20302594.747 3718436.945 -14990294.474 10 0 60436 78300.00000 0 21844757.515 4425001.215 -12412045.086 10 0 60436 79200.00000 0 23132432.407 4878584.750 -9592783.290 10 0 60436 80100.00000 0 24114917.386 5109120.365 -6587285.691 10 0 60436 81000.00000 0 24750691.856 5155980.512 -3453924.068 10 0 60436 81900.00000 0 25009155.523 5066057.940 -253530.886 10 0 60436 82800.00000 0 24871928.335 4891533.394 2951781.721 10 0 60436 83700.00000 0 24333657.389 4687425.534 6099826.338 10 0 60436 84600.00000 0 23402297.189 4509027.203 9129544.572 10 0 60436 85500.00000 0 22098851.791 4409336.757 11982187.848 10 0 60437 0.00000 0 20456589.953 4436593.191 14602451.740 10 0 60437 900.00000 0 18519765.198 4632019.204 16939543.533 10 0 60437 1800.00000 0 16341896.429 5027867.444 18948159.360 10 0 60437 2700.00000 0 13983677.566 5645852.356 20589357.315 10 0 60437 3600.00000 0 11510604.913 6496033.913 21831306.802 10 0 60437 4500.00000 0 8990419.421 7576200.597 22649901.767 10 0 60437 5400.00000 0 6490469.444 8871778.304 23029226.303 10 0 60437 6300.00000 0 4075102.491 10356270.038 22961864.054 10 0 60437 7200.00000 0 1803193.265 11992209.293 22449045.557 10 0 60437 8100.00000 0 -274090.416 13732588.724 21500630.488 10 0 60437 9000.00000 0 -2115191.949 15522705.945 20134924.683 10 0 60437 9900.00000 0 -3689662.123 17302350.747 18378334.674 10 0 60437 10800.00000 0 -4979185.523 19008243.605 16264865.485 10 0 60437 11700.00000 0 -5978094.855 20576624.449 13835470.313 10 0 60437 12600.00000 0 -6693352.106 21945883.865 11137263.698 10 0 60437 13500.00000 0 -7143997.670 23059126.650 8222612.587 10 0 60437 14400.00000 0 -7360090.945 23866559.868 5148122.278 10 0 60437 15300.00000 0 -7381187.419 24327604.473 1973536.721 10 0 60437 16200.00000 0 -7254416.993 24412640.831 -1239425.361 10 0 60437 17100.00000 0 -7032245.443 24104313.619 -4428275.519 10 0 60437 18000.00000 0 -6770014.546 23398340.097 -7530977.572 10 0 60437 18900.00000 0 -6523366.008 22303786.730 -10487161.926 10 0 60437 19800.00000 0 -6345659.402 20842801.665 -13239307.667 10 0 60437 20700.00000 0 -6285494.574 19049813.729 -15733868.484 10 0 60437 21600.00000 0 -6384444.545 16970231.198 -17922319.845 10 0 60437 22500.00000 0 -6675095.817 14658694.801 -19762106.538 10 0 60437 23400.00000 0 -7179479.825 12176958.127 -21217471.903 10 0 60437 24300.00000 0 -7907962.515 9591484.211 -22260152.687 10 0 60437 25200.00000 0 -8858639.472 6970858.728 -22869926.244 10 0 60437 26100.00000 0 -10017262.586 4383127.731 -23034999.851 10 0 60437 27000.00000 0 -11357701.682 1893170.653 -22752235.077 10 0 60437 27900.00000 0 -12842922.072 -439782.481 -22027203.347 10 0 60437 28800.00000 0 -14426437.191 -2564386.917 -20874072.048 10 0 60437 29700.00000 0 -16054175.591 -4439080.050 -19315323.775 10 0 60437 30600.00000 0 -17666684.167 -6033561.524 -17381314.388 10 0 60437 31500.00000 0 -19201575.346 -7329796.289 -15109678.657 10 0 60437 32400.00000 0 -20596115.719 -8322500.405 -12544595.123 10 0 60437 33300.00000 0 -21789847.635 -9019091.029 -9735924.501 10 0 60437 34200.00000 0 -22727133.791 -9439104.440 -6738238.508 10 0 60437 35100.00000 0 -23359518.115 -9613108.304 -3609758.090 10 0 60437 36000.00000 0 -23647803.861 -9581155.474 -411221.795 10 0 60437 36900.00000 0 -23563761.760 -9390845.835 2795293.442 10 0 60437 37800.00000 0 -23091396.522 -9095079.016 5947576.078 10 0 60437 38700.00000 0 -22227718.653 -8749593.677 8984484.820 10 0 60437 39600.00000 0 -20982989.282 -8410397.815 11847131.089 10 0 60437 40500.00000 0 -19380427.665 -8131198.850 14480016.336 10 0 60437 41400.00000 0 -17455393.438 -7960942.030 16832102.498 10 0 60437 42300.00000 0 -15254077.534 -7941560.951 18857795.291 10 0 60437 43200.00000 0 -12831755.880 -8106034.865 20517821.988 10 0 60437 44100.00000 0 -10250677.970 -8476834.544 21779987.365 10 0 60437 45000.00000 0 -7577677.300 -9064822.159 22619793.937 10 0 60437 45900.00000 0 -4881601.960 -9868651.744 23020915.057 10 0 60437 46800.00000 0 -2230670.886 -10874696.025 22975512.190 10 0 60437 47700.00000 0 310135.637 -12057503.609 22484390.337 10 0 60437 48600.00000 0 2681544.137 -13380768.516 21556988.459 10 0 60437 49500.00000 0 4832213.391 -14798772.791 20211204.592 10 0 60437 50400.00000 0 6720625.582 -16258243.090 18473058.269 10 0 60437 51300.00000 0 8316565.251 -17700544.755 16376195.821 10 0 60437 52200.00000 0 9602125.020 -19064122.460 13961247.068 10 0 60437 53100.00000 0 10572196.515 -20287085.717 11275044.856 10 0 60437 54000.00000 0 11234426.290 -21309831.043 8369721.686 10 0 60437 54900.00000 0 11608638.951 -22077590.438 5301700.359 10 0 60437 55800.00000 0 11725752.078 -22542798.439 2130597.971 10 0 60437 56700.00000 0 11626229.122 -22667177.241 -1081935.383 10 0 60437 57600.00000 0 11358136.178 -22423450.926 -4273420.203 10 0 60437 58500.00000 0 10974885.487 -21796615.319 -7381769.345 10 0 60437 59400.00000 0 10532762.042 -20784708.763 -10346503.332 10 0 60437 60300.00000 0 10088338.952 -19399050.184 -13109934.604 10 0 60437 61200.00000 0 9695892.034 -17663933.476 -15618296.772 10 0 60437 62100.00000 0 9404924.068 -15615790.350 -17822796.157 10 0 60437 63000.00000 0 9257904.340 -13301856.215 -19680564.679 10 0 60437 63900.00000 0 9288319.804 -10778394.755 -21155495.272 10 0 60437 64800.00000 0 9519120.776 -8108555.274 -22218943.628 10 0 60437 65700.00000 0 9961627.124 -5359952.183 -22850282.884 10 0 60437 66600.00000 0 10614941.346 -2602067.487 -23037300.832 10 0 60437 67500.00000 0 11465893.342 96415.737 -22776432.468 10 0 60437 68400.00000 0 12489519.290 2670238.319 -22072823.846 10 0 60437 69300.00000 0 13650054.423 5060039.752 -20940226.432 10 0 60437 70200.00000 0 14902397.989 7214580.612 -19400724.397 10 0 60437 71100.00000 0 16193988.753 9092621.224 -17484300.375 10 0 60437 72000.00000 0 17467012.218 10664379.582 -15228248.292 10 0 60437 72900.00000 0 18660846.756 11912509.213 -12676444.803 10 0 60437 73800.00000 0 19714645.780 12832557.754 -9878493.505 10 0 60437 74700.00000 0 20569947.375 13432888.804 -6888758.714 10 0 60437 75600.00000 0 21173201.599 13734072.039 -3765307.683 10 0 60437 76500.00000 0 21478109.121 13767768.857 -568781.957 10 0 60437 77400.00000 0 21447672.749 13575161.863 2638780.000 10 0 60437 78300.00000 0 21055875.533 13204995.620 5795145.866 10 0 60437 79200.00000 0 20288914.874 12711312.311 8839094.735 10 0 60437 80100.00000 0 19145940.665 12150978.431 11711601.173 10 0 60437 81000.00000 0 17639266.281 11581107.269 14356975.243 10 0 60437 81900.00000 0 15794043.281 11056485.989 16723936.703 10 0 60437 82800.00000 0 13647412.908 10627115.673 18766603.036 10 0 60437 83700.00000 0 11247169.243 10335967.744 20445372.810 10 0 60437 84600.00000 0 8649988.839 10217050.890 21727687.978 10 0 60437 85500.00000 0 5919299.574 10293869.582 22588661.069 10 0 60438 0.00000 0 3122876.370 10578338.877 23011555.742 10 0 60438 900.00000 0 330260.811 11070201.381 22988111.984 10 0 60438 1800.00000 0 -2389885.813 11756970.898 22518709.354 10 0 60438 2700.00000 0 -4972392.488 12614406.322 21612365.729 10 0 60438 3600.00000 0 -7358040.697 13607496.528 20286570.441 10 0 60438 4500.00000 0 -9495779.100 14691916.138 18566954.590 10 0 60438 5400.00000 0 -11344599.179 15815892.170 16486803.897 10 0 60438 6300.00000 0 -12874994.424 16922404.205 14086422.464 10 0 60438 7200.00000 0 -14069942.593 17951626.365 11412358.756 10 0 60438 8100.00000 0 -14925370.287 18843508.851 8516507.925 10 0 60438 9000.00000 0 -15450080.620 19540390.374 5455107.220 10 0 60438 9900.00000 0 -15665147.252 19989531.011 2287643.751 10 0 60438 10800.00000 0 -15602800.625 20145457.936 -924304.144 10 0 60438 11700.00000 0 -15304853.817 19972024.001 -4118269.004 10 0 60438 12600.00000 0 -14820735.043 19444090.999 -7232115.733 10 0 60438 13500.00000 0 -14205210.768 18548765.268 -10205257.819 10 0 60438 14400.00000 0 -13515896.547 17286132.180 -12979843.719 10 0 60438 15300.00000 0 -12810661.857 15669457.348 -15501889.369 10 0 60438 16200.00000 0 -12145039.607 13724845.056 -17722334.070 10 0 60438 17100.00000 0 -11569750.642 11490367.387 -19597998.677 10 0 60438 18000.00000 0 -11128448.542 9014699.999 -21092427.197 10 0 60438 18900.00000 0 -10855780.371 6355321.132 -22176595.434 10 0 60438 19800.00000 0 -10775845.446 3576348.815 -22829473.144 10 0 60438 20700.00000 0 -10901117.120 746106.215 -23038429.150 10 0 60438 21600.00000 0 -11231872.875 -2065483.715 -22799472.046 10 0 60438 22500.00000 0 -11756156.431 -4789566.252 -22117322.322 10 0 60438 23400.00000 0 -12450273.157 -7360975.066 -21005314.952 10 0 60438 24300.00000 0 -13279797.549 -9720696.254 -19485134.718 10 0 60438 25200.00000 0 -14201050.044 -11818074.635 -17586389.671 10 0 60438 26100.00000 0 -15162980.716 -13612671.507 -15346031.194 10 0 60438 27000.00000 0 -16109380.282 -15075697.722 -12807632.044 10 0 60438 27900.00000 0 -16981325.119 -16190963.713 -10020536.445 10 0 60438 28800.00000 0 -17719753.105 -16955308.294 -7038898.878 10 0 60438 29700.00000 0 -18268061.600 -17378489.865 -3920630.328 10 0 60438 30600.00000 0 -18574618.015 -17482546.262 -726272.639 10 0 60438 31500.00000 0 -18595076.998 -17300651.539 2482176.960 10 0 60438 32400.00000 0 -18294406.489 -16875519.100 5642468.183 10 0 60438 33300.00000 0 -17648537.213 -16257419.533 8693303.366 10 0 60438 34200.00000 0 -16645565.998 -15501897.485 11575523.073 10 0 60438 35100.00000 0 -15286462.107 -14667284.242 14233248.749 10 0 60438 36000.00000 0 -13585246.452 -13812111.008 16614960.609 10 0 60438 36900.00000 0 -11568635.641 -12992531.741 18674490.312 10 0 60438 37800.00000 0 -9275164.997 -12259863.722 20371909.831 10 0 60438 38700.00000 0 -6753826.117 -11658348.844 21674300.044 10 0 60438 39600.00000 0 -4062274.662 -11223229.246 22556384.847 10 0 60438 40500.00000 0 -1264681.560 -10979217.667 23001019.169 10 0 60438 41400.00000 0 1570684.511 -10939426.490 22999521.894 10 0 60438 42300.00000 0 4374044.456 -11104800.360 22551847.384 10 0 60438 43200.00000 0 7076760.007 -11464076.408 21666592.205 10 0 60438 44100.00000 0 9613940.169 -11994274.258 20360836.415 10 0 60438 45000.00000 0 11926895.780 -12661695.919 18659821.792 10 0 60438 45900.00000 0 13965341.047 -13423394.407 16596472.233 10 0 60438 46800.00000 0 15689251.138 -14229050.178 14210764.593 10 0 60438 47700.00000 0 17070298.733 -15023177.116 11548961.096 10 0 60438 48600.00000 0 18092809.793 -15747565.648 8662717.330 10 0 60438 49500.00000 0 18754198.666 -16343860.114 5608082.467 10 0 60438 50400.00000 0 19064864.333 -16756161.405 2444410.836 10 0 60438 51300.00000 0 19047552.335 -16933544.333 -766793.966 10 0 60438 52200.00000 0 18736209.498 -16832382.446 -3963079.606 10 0 60438 53100.00000 0 18174380.156 -16418380.813 -7082266.100 10 0 60438 54000.00000 0 17413212.182 -15668229.532 -10063662.894 10 0 60438 54900.00000 0 16509157.765 -14570806.677 -12849257.292 10 0 60438 55800.00000 0 15521466.918 -13127878.576 -15384850.193 10 0 60438 56700.00000 0 14509580.449 -11354266.591 -17621116.275 10 0 60438 57600.00000 0 13530533.257 -9277472.321 -19514567.492 10 0 60438 58500.00000 0 12636478.196 -6936775.997 -21028400.817 10 0 60438 59400.00000 0 11872435.341 -4381845.182 -22133213.762 10 0 60438 60300.00000 0 11274361.683 -1670911.339 -22807573.986 10 0 60438 61200.00000 0 10867622.442 1131410.007 -23038432.293 10 0 60438 62100.00000 0 10665928.030 3956565.046 -22821371.495 10 0 60438 63000.00000 0 10670780.848 6734671.984 -22160686.797 10 0 60438 63900.00000 0 10871454.548 9397187.685 -21069296.620 10 0 60438 64800.00000 0 11245505.911 11879520.298 -19568485.963 10 0 60438 65700.00000 0 11759797.067 14123479.915 -17687487.561 10 0 60438 66600.00000 0 12371984.376 16079466.068 -15462909.154 10 0 60438 67500.00000 0 13032410.609 17708301.975 -12938018.127 10 0 60438 68400.00000 0 13686320.210 18982640.209 -10161897.461 10 0 60438 69300.00000 0 14276303.787 19887882.351 -7188489.533 10 0 60438 70200.00000 0 14744868.382 20422575.575 -4075546.445 10 0 60438 71100.00000 0 15037024.795 20598271.000 -883507.411 10 0 60438 72000.00000 0 15102782.559 20438851.103 2325674.749 10 0 60438 72900.00000 0 14899447.107 19979355.801 5489735.085 10 0 60438 73800.00000 0 14393622.071 19264357.654 8547302.506 10 0 60438 74700.00000 0 13562832.104 18345955.412 11439086.831 10 0 60438 75600.00000 0 12396697.597 17281470.957 14109024.015 10 0 60438 76500.00000 0 10897611.489 16130946.758 16505357.665 10 0 60438 77400.00000 0 9080889.133 14954549.130 18581636.307 10 0 60438 78300.00000 0 6974384.154 13809986.092 20297607.746 10 0 60438 79200.00000 0 4617585.291 12750047.794 21619993.900 10 0 60438 80100.00000 0 2060230.699 11820372.133 22523131.800 10 0 60438 81000.00000 0 -639504.015 11057528.594 22989469.006 10 0 60438 81900.00000 0 -3417170.181 10487500.050 23009904.291 10 0 60438 82800.00000 0 -6204474.582 10124625.739 22583967.192 10 0 60438 83700.00000 0 -8931872.776 9971049.472 21719832.834 10 0 60438 84600.00000 0 -11531221.059 10016696.231 20434171.312 10 0 60438 85500.00000 0 -13938378.135 10239778.396 18751833.814 99